Home   Weather   Kuopio   Past weeks

Flag for Finland Past Weather in Kuopio, Finland — Yesterday and Last 2 Weeks

Now
32 °F

Snow. Low clouds.


Feels Like: 27 °F
Forecast: 32 / 38 °F
Wind: 5 mph from East

Location: Kuopio Airport

Current Time: Apr 26, 2017 at 7:40:58 am

Latest Report: Apr 26, 2017 at 6:50 am


Visibility: 0 mi

Pressure: 29.18 "Hg

Humidity: 100%

Dew Point: 32 °F

Location of KuopioLocation

Past Weather in Kuopio — Graph

°F

Kuopio Temperature Yesterday

Maximum temperature yesterday: 41 °F (at 3:50 pm)
Minimum temperature yesterday: 28 °F (at 2:20 am)
Average temperature yesterday: 35 °F

High & Low Weather Summary for the Past Weeks

 TemperatureHumidityPressure
High45 °F (Apr 22, 1:20 pm)100% (Apr 11, 7:20 am)30.45 "Hg (Apr 11, 7:20 am)
Low12 °F (Apr 15, 6:20 am)28% (Apr 19, 4:20 pm)29.00 "Hg (Apr 11, 6:20 am)
Average30 °F71%29.73 "Hg
* Reported Apr 11 6:20 am — Apr 26 6:20 am, Kuopio, Weather by CustomWeather, © 2017

Note: Actual official high and low records may vary slightly from our data, if they occured in-between our weather recording intervals... More about our weather records

Advertising

Kuopio Weather History for the Previous 24 Hours

Scroll right to see more
 ConditionsComfort  
Time TempWeatherWind HumidityBarometerVisibility
6:20 am
Wed, Apr 26
32 °FSnow. Low clouds.8 mph100%29.21 "Hg1 mi
5:50 am32 °FLight snow. Low clouds.9 mph100%29.24 "Hg1 mi
5:20 am32 °FSnow. Low clouds.12 mph100%29.24 "Hg1 mi
4:50 am32 °FSnow. Low clouds.13 mph100%29.27 "Hg1 mi
4:20 am34 °FLight snow. Low clouds.13 mph93%29.30 "Hg1 mi
3:50 am34 °FLight snow. Low clouds.16 mph93%29.33 "Hg2 mi
3:20 am34 °FLight snow. Low clouds.14 mph93%29.36 "Hg2 mi
2:50 am34 °FLight snow. Low clouds.13 mph93%29.39 "Hg2 mi
2:20 am34 °FLight snow. Low clouds.15 mph93%29.42 "Hg3 mi
1:50 am34 °FLight snow. Low clouds.16 mph93%29.45 "Hg2 mi
1:20 am34 °FLight snow. Low clouds.16 mph93%29.47 "Hg3 mi
12:50 am34 °FLight snow. Low clouds.13 mph93%29.50 "Hg4 mi
12:20 am34 °FLight rain. Mostly cloudy.12 mph93%29.53 "Hg3 mi
11:50 pm
Tue, Apr 25
34 °FLight rain. Mostly cloudy.10 mph93%29.56 "Hg6 mi
11:20 pm34 °FSleet. Overcast.10 mph93%29.59 "Hg5 mi
10:50 pm34 °FLight rain. Overcast.9 mph93%29.62 "Hg6 mi
9:50 pm32 °FSnow. Overcast.6 mph100%29.65 "Hg1 mi
9:20 pm36 °FSprinkles. Overcast.8 mph81%29.68 "Hg3 mi
8:50 pm37 °FSprinkles. Overcast.12 mph70%29.68 "HgN/A
8:20 pm37 °FOvercast.9 mph65%29.68 "HgN/A
7:50 pm37 °FLight rain. Overcast.12 mph70%29.68 "HgN/A
7:20 pm39 °FScattered showers. Overcast.15 mph65%29.68 "HgN/A
6:50 pm39 °FSunny.12 mph61%29.68 "Hg10 mi
6:20 pm41 °FPassing clouds.10 mph57%29.68 "HgN/A
5:50 pm39 °FPassing clouds.8 mph65%29.68 "HgN/A
5:20 pm39 °FSunny.10 mph61%29.71 "Hg10 mi
4:50 pm39 °FSunny.8 mph65%29.71 "Hg10 mi
4:20 pm41 °FSunny.10 mph57%29.71 "Hg10 mi
3:50 pm41 °FOvercast.9 mph57%29.71 "HgN/A
3:20 pm39 °FOvercast.13 mph61%29.71 "HgN/A
2:50 pm39 °FOvercast.14 mph61%29.71 "HgN/A
2:20 pm39 °FMore clouds than sun.12 mph61%29.74 "HgN/A
1:50 pm39 °FPartly sunny.12 mph61%29.74 "HgN/A
1:20 pm39 °FPartly sunny.15 mph61%29.74 "HgN/A
12:50 pm39 °FPartly sunny.12 mph65%29.74 "HgN/A
12:20 pm39 °FPartly sunny.12 mph65%29.74 "HgN/A
11:50 am39 °FPartly sunny.10 mph65%29.74 "HgN/A
11:20 am39 °FPartly sunny.12 mph70%29.74 "HgN/A
10:50 am39 °FPartly sunny.12 mph65%29.74 "HgN/A
10:20 am37 °FPartly sunny.7 mph70%29.74 "HgN/A
9:50 am37 °FPassing clouds.6 mph75%29.74 "HgN/A
9:20 am36 °FPassing clouds.6 mph81%29.74 "HgN/A
8:50 am36 °FPassing clouds.3 mph81%29.74 "HgN/A
8:20 am34 °FPassing clouds.2 mph81%29.74 "HgN/A
7:50 am34 °FPassing clouds.3 mph87%29.74 "HgN/A
7:20 am32 °FSunny.3 mph87%29.74 "Hg10 mi
Weather by CustomWeather, © 2017

See weather overviewHow to use our weather pages